Погода в Маяковском

Россия / Калининградская область     54°31′08″N   22°04′01″E
темп.,
°C
ветер,
м/с
пор.,
м/с
влажн.,
%
обл.,
%
осадки,
мм/ч
давл.,
гПа
погр.,
м
25 мая, ср
ср2523:00+12ю3676100 0.0 1012127
02:00+12ююв31091100 0.0 1012243
05:00+13ююв41091100 0.1 1011386
08:00+13ююв4895100 0.9 1012401
11:00+16ююз369398 0.5 1011574
14:00+16з4895100 1.6 1012488
17:00+13сз51094100 0.6 1013513
20:00+11сз1195100 3.4 101228
26 мая, чт
чт2623:00+9з239864 0.0 101365
02:00+8зюз349769 0.0 101276
05:00+8зюз35977 0.0 1011108
08:00+13зюз5108628 0.0 1011561
11:00+15з7116899 0.8 10101389
14:00+15з8138275 2.3 10091361
17:00+13з815833 2.1 10091564
20:00+11з815721 2.1 10101158
27 мая, пт
пт2723:00+10з714740 0.0 1010918
02:00+9зюз6147913 0.0 1010772
05:00+7зюз6138413 0.0 1009530
08:00+11зюз51073100 0.0 10081069
11:00+12юз698250 0.4 1005879
14:00+14з915786 4.1 10041759
17:00+13з8156214 0.2 10041967
20:00+10з8157311 0.3 10051323
28 мая, сб
сб2823:00+9зюз7147712 0.0 1005965
02:00+9зюз7137797 0.0 10041098
05:00+7зюз61192100 0.2 1003778
08:00+8зюз71193100 2.9 1003784
11:00+10зюз798591 1.2 10041113
14:00+12зюз687173 2.2 10041527
17:00+12з587534 1.1 10051315
20:00+9з489048 1.6 1006299
29 мая, вс
вс2923:00+6зюз499836 0.0 1008246
02:00+7юз4996100 0.0 1008267
05:00+8юз4995100 0.0 1009285
08:00+10зюз479185 0.1 1009465
11:00+13зюз458399 0.9 1010803
14:00+15з347159 2.4 10101166
17:00+15з126367 0.6 10111202
20:00+11зюз2486100 1.0 101197